Weather History for Lawrence, KS

Change the Weather History Date:

Thursday, January 17, 2013

  Actual Average Record
Temperature  
Mean Temperature 36 °F 29 °F  
Max Temperature 50 °F 40 °F 51 °F (1998)
Min Temperature 22 °F 18 °F -9 °F (1997)
Degree Days  
Heating Degree Days 29 36  
Month to date heating degree days 578 612  
Since 1 July heating degree days 2518 2655  
Cooling Degree Days 0 0  
Month to date cooling degree days 0 0  
Year to date cooling degree days 0 0  
Moisture  
Dew Point 26 °F    
Average Humidity 71    
Maximum Humidity 96    
Minimum Humidity 46    
Precipitation  
Precipitation 0.00 in 0.04 in 0.24 in (2004)
Month to date precipitation 0.53 0.49  
Year to date precipitation 0.53 0.49  
Sea Level Pressure  
Sea Level Pressure 30.42 in    
Wind  
Wind Speed 5 mph (NW)    
Max Wind Speed 10 mph    
Max Gust Speed 14 mph    
Visibility 10 miles    
Events      
T = Trace of Precipitation, MM = Missing Value Source: NWS Daily Summary

Daily Weather History Graph

Daily Weather History Graph

Search for Another Location

Airport:

Trip Planner

Search our weather history database for the weather conditions in past years. The results will help you decide how hot, cold, wet, or windy it might be!

Date:

Astronomy

Jan. 17, 2013 Rise Set
Actual Time 7:37 AM CST 5:25 PM CST
Civil Twilight 7:08 AM CST 5:54 PM CST
Nautical Twilight 6:35 AM CST 6:27 PM CST
Astronomical Twilight 6:03 AM CST 6:59 PM CST
Moon 10:48 AM CST (1/17) No Moon Set
Length of Visible Light 10h 46m
Length of Day
9h 47m
Waxing Crescent, 38% of the Moon is Illuminated
Jan 17
Waxing Crescent
Jan 18
First Quarter
Jan 26
Full
Feb 3
Last Quarter
Feb 10
New

Hourly Weather History & Observations

Time (CST) Temp. Windchill Dew Point Humidity Pressure Visibility Wind Dir Wind Speed Gust Speed Precip Events Conditions
12:52 AM 30.9 °F 22.8 °F 26.1 °F 82% 30.26 in 10.0 mi NW 9.2 mph - N/A   Clear
1:52 AM 28.9 °F 23.9 °F 25.0 °F 85% 30.28 in 10.0 mi NW 4.6 mph - N/A   Clear
2:52 AM 30.0 °F 26.5 °F 25.0 °F 82% 30.32 in 10.0 mi West 3.5 mph - N/A   Clear
3:52 AM 27.0 °F 18.7 °F 23.0 °F 85% 30.34 in 10.0 mi NW 8.1 mph - N/A   Clear
4:52 AM 28.0 °F 18.6 °F 25.0 °F 88% 30.37 in 10.0 mi NW 10.4 mph - N/A   Clear
5:52 AM 26.1 °F 19.4 °F 24.1 °F 92% 30.40 in 9.0 mi NW 5.8 mph - N/A   Clear
6:52 AM 25.0 °F 18.1 °F 23.0 °F 92% 30.43 in 8.0 mi NW 5.8 mph - N/A   Clear
7:52 AM 23.0 °F 15.8 °F 21.9 °F 96% 30.45 in 6.0 mi NW 5.8 mph - N/A   Clear
8:52 AM 28.9 °F 25.2 °F 27.0 °F 92% 30.47 in 7.0 mi NW 3.5 mph - N/A   Clear
9:52 AM 36.0 °F 32.1 °F 28.9 °F 76% 30.51 in 10.0 mi North 4.6 mph - N/A   Clear
10:52 AM 39.0 °F 35.7 °F 27.0 °F 62% 30.52 in 10.0 mi North 4.6 mph - N/A   Clear
11:52 AM 42.1 °F 37.1 °F 28.0 °F 58% 30.49 in 10.0 mi NW 8.1 mph - N/A   Clear
12:52 PM 45.0 °F 41.8 °F 28.0 °F 52% 30.47 in 10.0 mi NW 5.8 mph - N/A   Clear
1:52 PM 48.0 °F - 28.9 °F 48% 30.44 in 10.0 mi West 3.5 mph - N/A   Clear
2:52 PM 48.0 °F - 28.9 °F 48% 30.43 in 10.0 mi West 6.9 mph - N/A   Clear
3:52 PM 48.9 °F - 28.9 °F 46% 30.44 in 10.0 mi NW 3.5 mph - N/A   Clear
4:52 PM 46.0 °F - 30.0 °F 54% 30.45 in 10.0 mi Calm Calm - N/A   Clear
5:52 PM 39.9 °F - 28.9 °F 65% 30.45 in 10.0 mi Calm Calm - N/A   Clear
6:52 PM 30.0 °F 26.5 °F 24.1 °F 79% 30.45 in 10.0 mi ESE 3.5 mph - N/A   Clear
7:52 PM 27.0 °F 21.6 °F 23.0 °F 85% 30.46 in 10.0 mi East 4.6 mph - N/A   Clear
8:52 PM 28.0 °F 22.8 °F 24.1 °F 85% 30.45 in 10.0 mi ESE 4.6 mph - N/A   Clear
9:52 PM 28.9 °F 23.9 °F 25.0 °F 85% 30.44 in 10.0 mi ESE 4.6 mph - N/A   Clear
10:52 PM 28.9 °F 22.8 °F 24.1 °F 82% 30.43 in 10.0 mi SE 5.8 mph - N/A   Clear
11:52 PM 28.0 °F 21.7 °F 24.1 °F 85% 30.42 in 10.0 mi SE 5.8 mph - N/A   Clear